• In Hungary
  • List of Countries
  • For 7 days
  • Water Temperature
  • Satellite Maps
  • Weather Map
  • News
  • Weather Widgets
  • user-avatar
    Login

    Hourly Weather Dyakonovo

    Today, 23 June, Saturday

    Time Temperature Precipitation Wind Pressure Humidity
    00:00 +20°C° 0 mm 2 mps 747 mmHg 92%
    01:00 +20°C° 0 mm 2 mps 747 mmHg 92%
    02:00 +19°C° 0 mm 2 mps 747 mmHg 93%
    03:00 +19°C° 0 mm 2 mps 747 mmHg 93%
    04:00 +20°C° 0 mm 2 mps 747 mmHg 91%
    05:00 +20°C° 0 mm 2 mps 748 mmHg 90%
    06:00 +21°C° 0 mm 2 mps 748 mmHg 88%
    07:00 +23°C° 0 mm 2 mps 748 mmHg 82%
    08:00 +25°C° 0 mm 2 mps 748 mmHg 77%
    09:00 +27°C° 0 mm 3 mps 748 mmHg 71%
    10:00 +28°C° 0 mm 3 mps 748 mmHg 65%
    11:00 +29°C° 0 mm 4 mps 748 mmHg 60%
    12:00 +30°C° 0 mm 5 mps 747 mmHg 54%
    13:00 +30°C° 0 mm 5 mps 747 mmHg 53%
    14:00 +32°C° 0 mm 5 mps 747 mmHg 52%
    15:00 +32°C° 0 mm 5 mps 747 mmHg 50%
    16:00 +30°C° 0 mm 4 mps 746 mmHg 55%
    17:00 +30°C° 0 mm 4 mps 746 mmHg 59%
    18:00 +29°C° 0 mm 3 mps 746 mmHg 64%
    19:00 +28°C° 0 mm 3 mps 746 mmHg 69%
    20:00 +26°C° 0 mm 3 mps 746 mmHg 75%
    21:00 +24°C° 0 mm 3 mps 746 mmHg 80%
    22:00 +22°C° 0 mm 3 mps 746 mmHg 80%
    23:00 +22°C° 0 mm 4 mps 746 mmHg 81%

    Tomorrow, 24 June, Sunday

    Time Temperature Precipitation Wind Pressure Humidity
    00:00 +21°C° 0 mm 4 mps 746 mmHg 81%
    01:00 +21°C° 0 mm 4 mps 746 mmHg 81%
    02:00 +21°C° 0 mm 4 mps 746 mmHg 80%
    03:00 +21°C° 0 mm 4 mps 746 mmHg 80%
    04:00 +21°C° 0 mm 5 mps 746 mmHg 79%
    05:00 +21°C° 0 mm 5 mps 746 mmHg 78%
    06:00 +21°C° 0 mm 5 mps 745 mmHg 77%
    07:00 +22°C° 0 mm 5 mps 745 mmHg 72%
    08:00 +23°C° 0 mm 6 mps 745 mmHg 67%
    09:00 +24°C° 0 mm 6 mps 745 mmHg 62%
    10:00 +26°C° 0 mm 6 mps 745 mmHg 62%
    11:00 +26°C° 0 mm 5 mps 746 mmHg 61%
    12:00 +26°C° 0 mm 5 mps 746 mmHg 61%
    13:00 +26°C° 0.1 mm 4 mps 746 mmHg 61%
    14:00 +27°C° 0.1 mm 4 mps 746 mmHg 62%
    15:00 +27°C° 0.1 mm 4 mps 746 mmHg 62%
    16:00 +25°C° 0.8 mm 4 mps 746 mmHg 71%
    17:00 +22°C° 0.8 mm 4 mps 747 mmHg 79%
    18:00 +20°C° 0.8 mm 4 mps 747 mmHg 88%
    19:00 +19°C° 0.5 mm 4 mps 747 mmHg 90%
    20:00 +17°C° 0.5 mm 3 mps 748 mmHg 92%
    21:00 +16°C° 0.5 mm 3 mps 748 mmHg 94%
    22:00 +14°C° 0 mm 3 mps 748 mmHg 94%
    23:00 +13°C° 0 mm 3 mps 749 mmHg 94%

    Day after tomorrow, 25 June, Monday

    Time Temperature Precipitation Wind Pressure Humidity
    00:00 +12°C° 0 mm 3 mps 749 mmHg 94%
    01:00 +13°C° 0 mm 2 mps 750 mmHg 94%
    02:00 +12°C° 0 mm 2 mps 750 mmHg 94%
    03:00 +12°C° 0 mm 2 mps 751 mmHg 95%
    04:00 +12°C° 0 mm 2 mps 751 mmHg 93%
    05:00 +13°C° 0 mm 2 mps 751 mmHg 92%
    06:00 +13°C° 0 mm 2 mps 752 mmHg 90%
    07:00 +15°C° 0 mm 2 mps 752 mmHg 82%
    08:00 +17°C° 0 mm 2 mps 752 mmHg 74%
    09:00 +19°C° 0 mm 2 mps 752 mmHg 67%
    10:00 +20°C° 0 mm 2 mps 752 mmHg 62%
    11:00 +21°C° 0 mm 2 mps 752 mmHg 57%
    12:00 +23°C° 0 mm 2 mps 752 mmHg 53%
    13:00 +24°C° 0 mm 2 mps 752 mmHg 52%
    14:00 +24°C° 0 mm 2 mps 752 mmHg 51%
    15:00 +25°C° 0 mm 2 mps 752 mmHg 50%
    16:00 +24°C° 0 mm 2 mps 752 mmHg 53%
    17:00 +24°C° 0 mm 2 mps 752 mmHg 56%
    18:00 +24°C° 0 mm 2 mps 752 mmHg 59%
    19:00 +21°C° 0 mm 2 mps 753 mmHg 65%
    20:00 +19°C° 0 mm 2 mps 753 mmHg 72%
    21:00 +18°C° 0 mm 2 mps 753 mmHg 78%
    22:00 +17°C° 0 mm 2 mps 753 mmHg 81%
    23:00 +16°C° 0 mm 1 mps 753 mmHg 84%

    26 June, Tuesday

    Time Temperature Precipitation Wind Pressure Humidity
    00:00 +15°C° 0 mm 1 mps 753 mmHg 88%
    01:00 +15°C° 0 mm 1 mps 754 mmHg 89%
    02:00 +14°C° 0 mm 1 mps 754 mmHg 90%
    03:00 +14°C° 0 mm 1 mps 754 mmHg 91%
    04:00 +15°C° 0 mm 1 mps 754 mmHg 89%
    05:00 +15°C° 0 mm 1 mps 754 mmHg 87%
    06:00 +16°C° 0 mm 1 mps 754 mmHg 84%
    07:00 +19°C° 0 mm 1 mps 754 mmHg 78%
    08:00 +20°C° 0 mm 1 mps 754 mmHg 71%
    09:00 +22°C° 0 mm 1 mps 754 mmHg 64%
    10:00 +23°C° 0 mm 1 mps 754 mmHg 60%
    11:00 +24°C° 0 mm 2 mps 754 mmHg 55%
    12:00 +25°C° 0 mm 2 mps 754 mmHg 51%
    13:00 +25°C° 0 mm 2 mps 754 mmHg 50%
    14:00 +26°C° 0 mm 2 mps 753 mmHg 49%
    15:00 +26°C° 0 mm 2 mps 753 mmHg 48%
    16:00 +26°C° 0 mm 2 mps 753 mmHg 51%
    17:00 +26°C° 0 mm 2 mps 753 mmHg 53%
    18:00 +25°C° 0 mm 2 mps 753 mmHg 56%
    19:00 +23°C° 0 mm 2 mps 753 mmHg 62%
    20:00 +21°C° 0 mm 1 mps 753 mmHg 68%
    21:00 +19°C° 0 mm 1 mps 753 mmHg 74%
    22:00 +19°C° 0 mm 1 mps 753 mmHg 76%
    23:00 +18°C° 0 mm 1 mps 753 mmHg 77%

    27 June, Wednesday

    Time Temperature Precipitation Wind Pressure Humidity
    00:00 +16°C° 0 mm 1 mps 753 mmHg 79%
    01:00 +16°C° 0 mm 1 mps 753 mmHg 80%
    02:00 +15°C° 0 mm 1 mps 753 mmHg 82%
    03:00 +15°C° 0 mm 1 mps 753 mmHg 83%
    04:00 +15°C° 0 mm 1 mps 753 mmHg 82%
    05:00 +16°C° 0 mm 1 mps 753 mmHg 81%
    06:00 +18°C° 0 mm 1 mps 753 mmHg 79%
    07:00 +19°C° 0 mm 2 mps 753 mmHg 73%
    08:00 +21°C° 0 mm 2 mps 753 mmHg 68%
    09:00 +23°C° 0 mm 2 mps 753 mmHg 62%
    10:00 +25°C° 0 mm 2 mps 752 mmHg 57%
    11:00 +26°C° 0 mm 2 mps 752 mmHg 53%
    12:00 +27°C° 0 mm 2 mps 752 mmHg 49%
    13:00 +28°C° 0 mm 2 mps 751 mmHg 47%
    14:00 +28°C° 0 mm 2 mps 751 mmHg 45%
    15:00 +29°C° 0 mm 1 mps 750 mmHg 44%
    16:00 +28°C° 0 mm 2 mps 750 mmHg 48%
    17:00 +27°C° 0 mm 2 mps 750 mmHg 53%
    18:00 +27°C° 0 mm 2 mps 750 mmHg 58%
    19:00 +25°C° 0.2 mm 2 mps 750 mmHg 67%
    20:00 +23°C° 0.2 mm 2 mps 750 mmHg 75%
    21:00 +20°C° 0.2 mm 3 mps 750 mmHg 83%
    22:00 +19°C° 0.1 mm 3 mps 750 mmHg 87%
    23:00 +18°C° 0.1 mm 3 mps 749 mmHg 91%

    28 June, Thursday

    Time Temperature Precipitation Wind Pressure Humidity
    00:00 +18°C° 0.1 mm 2 mps 749 mmHg 95%
    01:00 +17°C° 0.2 mm 3 mps 749 mmHg 96%
    02:00 +17°C° 0.2 mm 3 mps 749 mmHg 96%
    03:00 +17°C° 0.2 mm 3 mps 749 mmHg 96%
    04:00 +17°C° 0.2 mm 3 mps 749 mmHg 95%
    05:00 +18°C° 0.2 mm 3 mps 749 mmHg 94%
    06:00 +18°C° 0.2 mm 4 mps 749 mmHg 92%
    07:00 +19°C° 0.1 mm 4 mps 749 mmHg 89%
    08:00 +20°C° 0.1 mm 5 mps 749 mmHg 85%
    09:00 +21°C° 0.1 mm 5 mps 749 mmHg 82%
    10:00 +22°C° 0 mm 5 mps 749 mmHg 79%
    11:00 +23°C° 0 mm 5 mps 748 mmHg 76%
    12:00 +23°C° 0 mm 5 mps 748 mmHg 73%
    13:00 +25°C° 0.3 mm 5 mps 748 mmHg 73%
    14:00 +25°C° 0.3 mm 4 mps 748 mmHg 72%
    15:00 +26°C° 0.3 mm 4 mps 747 mmHg 72%
    16:00 +25°C° 2.2 mm 4 mps 747 mmHg 76%
    17:00 +25°C° 2.2 mm 4 mps 747 mmHg 81%
    18:00 +23°C° 2.2 mm 4 mps 746 mmHg 86%
    19:00 +22°C° 4.7 mm 4 mps 746 mmHg 88%
    20:00 +21°C° 4.7 mm 3 mps 746 mmHg 90%
    21:00 +20°C° 4.7 mm 3 mps 746 mmHg 91%
    22:00 +20°C° 1.3 mm 4 mps 746 mmHg 93%
    23:00 +20°C° 1.3 mm 4 mps 746 mmHg 94%
    Show more